TimeCST,TemperatureF,Dew PointF,Humidity,Sea Level PressureIn,VisibilityMPH,Wind Direction,Wind SpeedMPH,Gust SpeedMPH,PrecipitationIn,Events,Conditions,WindDirDegrees,DateUTC
12:52 AM,23.0,10.9,60,30.45,10.0,North,8.1,-,N/A,,Clear,350,2013-11-27 06:52:00
1:52 AM,19.9,10.9,68,30.45,10.0,NNW,5.8,-,N/A,,Clear,330,2013-11-27 07:52:00
2:52 AM,18.0,10.9,74,30.45,10.0,NW,6.9,-,N/A,,Clear,320,2013-11-27 08:52:00
3:52 AM,17.1,10.9,77,30.46,10.0,NNW,4.6,-,N/A,,Clear,340,2013-11-27 09:52:00
4:52 AM,17.1,10.9,77,30.47,10.0,NNW,5.8,-,N/A,,Clear,330,2013-11-27 10:52:00
5:52 AM,17.1,10.9,77,30.47,10.0,NNW,5.8,-,N/A,,Clear,330,2013-11-27 11:52:00
6:52 AM,16.0,10.0,77,30.48,10.0,NW,5.8,-,N/A,,Clear,320,2013-11-27 12:52:00
7:52 AM,18.0,10.9,74,30.50,10.0,NNW,5.8,-,N/A,,Clear,340,2013-11-27 13:52:00
8:52 AM,23.0,12.9,65,30.50,10.0,NNW,6.9,-,N/A,,Clear,340,2013-11-27 14:52:00
9:52 AM,28.0,10.9,49,30.49,10.0,Variable,5.8,-,N/A,,Clear,0,2013-11-27 15:52:00
10:52 AM,30.9,10.0,42,30.48,10.0,Variable,3.5,-,N/A,,Clear,0,2013-11-27 16:52:00
11:52 AM,32.0,9.0,38,30.46,10.0,NNW,5.8,-,N/A,,Clear,340,2013-11-27 17:52:00
12:52 PM,34.0,9.0,35,30.42,10.0,Variable,4.6,-,N/A,,Clear,0,2013-11-27 18:52:00
1:52 PM,35.1,9.0,34,30.40,10.0,Calm,Calm,-,N/A,,Clear,0,2013-11-27 19:52:00
2:52 PM,36.0,10.9,36,30.37,10.0,Variable,3.5,-,N/A,,Clear,0,2013-11-27 20:52:00
3:52 PM,35.1,10.0,35,30.35,10.0,SW,5.8,-,N/A,,Clear,220,2013-11-27 21:52:00
4:52 PM,33.1,12.0,42,30.33,10.0,South,4.6,-,N/A,,Clear,190,2013-11-27 22:52:00
5:52 PM,28.9,12.9,51,30.33,10.0,SE,3.5,-,N/A,,Clear,140,2013-11-27 23:52:00
6:52 PM,28.9,12.9,51,30.32,10.0,SE,3.5,-,N/A,,Clear,140,2013-11-28 00:52:00
7:52 PM,28.0,14.0,56,30.32,10.0,South,5.8,-,N/A,,Clear,180,2013-11-28 01:52:00
8:52 PM,27.0,14.0,58,30.32,10.0,South,5.8,-,N/A,,Clear,190,2013-11-28 02:52:00
9:52 PM,28.0,12.9,53,30.30,10.0,South,6.9,-,N/A,,Clear,180,2013-11-28 03:52:00
10:52 PM,28.0,14.0,56,30.30,10.0,South,9.2,-,N/A,,Clear,180,2013-11-28 04:52:00
11:52 PM,28.0,15.1,58,30.28,10.0,South,9.2,-,N/A,,Clear,190,2013-11-28 05:52:00